Regional Weather Roundup
Issued by NWS

Home | Current Version | Previous Version | Text Only | Print | Product List | Glossary On
Versions: 1 2 3 4 5 6 7 8 9 10 11 12 13 14 15 16 17 18 19 20 21 22 23 24 25 26 27 28 29 30 31 32 33 34 35 36 37 38 39 40 41 42 43 44 45 46 47 48 49 50
000
ASUS43 KTOP 261759
RWRKS

WEATHER ROUNDUP FOR KANSAS
NATIONAL WEATHER SERVICE GOODLAND KS
1200 PM CST FRI DEC 26 2014

NOTE:  "FAIR" INDICATES FEW OR NO CLOUDS BELOW 12,000 FEET WITH NO
SIGNIFICANT WEATHER AND/OR OBSTRUCTIONS TO VISIBILITY.

KSZ001>006-013>018-027>032-041>047-261900-
NORTHWEST KANSAS

CITY           SKY/WX    TMP DP  RH WIND       PRES   REMARKS
GOODLAND       LGT SNOW  23  20  88 N15       29.97F FOG     WCI  10
6HR MIN TEMP:  22; 6HR MAX TEMP:  24; 6HR PCP:  0.04;

HAYS           CLOUDY    28  18  64 N17       29.99F WCI  16
HILL CITY      CLOUDY    29  21  72 N14       30.02S WCI  18
6HR MIN TEMP:  28; 6HR MAX TEMP:  30;

RUSSELL        CLOUDY    30  25  81 N12       29.98R WCI  20
6HR MIN TEMP:  30; 6HR MAX TEMP:  31;

$$

KSZ061>065-074>080-084>089-261900-
SOUTHWEST KANSAS

CITY           SKY/WX    TMP DP  RH WIND       PRES   REMARKS
DODGE CITY     CLOUDY    29  25  85 N14       29.95F FOG     WCI  18
6HR MIN TEMP:  28; 6HR MAX TEMP:  31;

ELKHART          N/A     26  21  81 N9          N/A
GARDEN CITY    LGT SNOW  25  24  96 N18       29.95F FOG     WCI  11
6HR MIN TEMP:  25; 6HR MAX TEMP:  29; 6HR PCP: TRACE;

GREAT BEND     CLOUDY    30  23  74 N15       29.98F WCI  19
LIBERAL        CLOUDY    30  21  69 N13       29.97F WCI  20
$$

KSZ066>073-081>083-090>101-261900-
SOUTHEAST KANSAS

CITY           SKY/WX    TMP DP  RH WIND       PRES   REMARKS
CHANUTE        CLOUDY    55  45  68 SW21G26   29.92F
6HR MIN TEMP:  43; 6HR MAX TEMP:  55;

COFFEYVILLE    CLOUDY    57  46  66 S17G25    29.92F
6HR MIN TEMP:  44; 6HR MAX TEMP:  57;

HUTCHINSON     CLOUDY    35  31  85 N10       29.96S WCI  27
6HR MIN TEMP:  32; 6HR MAX TEMP:  35;

MEDICINE LODGE   N/A     35  31  85 N13       29.95S WCI  26
NEWTON         CLOUDY    36  28  75 N12       29.95S WCI  27
PARSONS        CLOUDY    57  46  66 S17G23    29.93F
6HR MIN TEMP:  45; 6HR MAX TEMP:  57;

WICHITA INTL   CLOUDY    39  32  76 N12       29.93F WCI  32
6HR MIN TEMP:  34; 6HR MAX TEMP:  39;

WICHITA JABRA  CLOUDY    37  32  82 N12       29.93F WCI  29
6HR MIN TEMP:  32; 6HR MAX TEMP:  42;

WICHITA MCCONL PTSUNNY   37  32  81 N12       29.94F WCI  30
WINFIELD       CLOUDY    48  40  73 NW7       29.92F
6HR MIN TEMP:  37; 6HR MAX TEMP:  49;

$$

KSZ007>012-019>026-033>040-048>060-102>105-261900-
NORTHEAST KANSAS

CITY           SKY/WX    TMP DP  RH WIND       PRES   REMARKS
CONCORDIA      CLOUDY    31  28  89 N16       29.95F WCI  20
6HR MIN TEMP:  31; 6HR MAX TEMP:  32;

EMPORIA        PTSUNNY   43  33  68 NW6       29.93S
6HR MIN TEMP:  35; 6HR MAX TEMP:  44;

LAWRENCE       CLOUDY    47  36  65 NW9       29.93F
6HR MIN TEMP:  42; 6HR MAX TEMP:  48;

MANHATTAN      CLOUDY    35  33  92 NE9       29.95F FOG
6HR MIN TEMP:  32; 6HR MAX TEMP:  35;

OLATHE IND     PTSUNNY   51  43  74 SW16G22   29.92F
6HR MIN TEMP:  44; 6HR MAX TEMP:  51;

OLATHE EXE     CLOUDY    52  43  71 SW12      29.91F
6HR MIN TEMP:  45; 6HR MAX TEMP:  52;

SALINA         CLOUDY    34  29  82 N14       29.99R WCI  25
6HR MIN TEMP:  34; 6HR MAX TEMP:  35;

TOPEKA BILLARD CLOUDY    38  33  82 N6        29.96F
6HR MIN TEMP:  37; 6HR MAX TEMP:  43;

TOPEKA FORBES  CLOUDY    40  32  73 NW9       29.93F
6HR MIN TEMP:  38; 6HR MAX TEMP:  43;

$$



USA.gov is the U.S. government's official web portal to all federal, state and local government web resources and services.